FW1136 Weather Reports


time (UTC)temp
C
wind
direction
speed
KPH
gust
KPH
rain 1hr
cm
rain 24hr
cm
rain mn
cm
humidity
%
barometer
mb
20260502162016 17 0.0 0.0 0.00 0.00 0.00 32 1012.0
20260502161016 16 0.0 0.0 0.00 0.00 0.00 33 1011.9
20260502152017 13 0.0 0.0 0.00 0.00 0.00 40 1012.0
20260502151016 13 0.0 0.0 0.00 0.00 0.00 40 1011.9
20260502123036 8 0.0 0.0 0.00 0.00 0.00 40 1011.3
20260502122016 8 0.0 0.0 0.00 0.00 0.00 41 1011.3
20260502121016 7 0.0 0.0 0.00 0.00 0.00 43 1011.3
20260502115016 7 0.0 0.0 0.00 0.00 0.00 42 1011.3
20260502114015 8 0.0 0.0 0.00 0.00 0.00 43 1011.3
20260502113016 7 0.0 0.0 0.00 0.00 0.00 43 1011.4
20260502112056 7 0.0 0.0 0.00 0.00 0.00 44 1011.5
20260502111016 7 0.0 0.0 0.00 0.00 0.00 45 1011.5
20260502110016 8 0.0 0.0 0.00 0.00 0.00 43 1011.5
20260502105015 8 0.0 0.0 0.00 0.00 0.00 44 1011.5
20260502104015 8 0.0 0.0 0.00 0.00 0.00 43 1011.4
20260502103015 8 0.0 0.0 0.00 0.00 0.00 44 1011.4
20260502102016 8 0.0 0.0 0.00 0.00 0.00 45 1011.3
20260502101035 8 0.0 0.0 0.00 0.00 0.00 45 1011.4
20260502091015 8 0.0 0.0 0.00 0.00 0.00 44 1011.4
20260502071017 11 0.0 0.0 0.00 0.00 0.00 39 1011.2
20260502070037 10 0.0 0.0 0.00 0.00 0.00 39 1011.2
20260502065017 11 0.0 0.0 0.00 0.00 0.00 36 1011.3
20260502064037 12 0.0 0.0 0.00 0.00 0.00 32 1011.3
20260502063017 11 0.0 0.0 0.00 0.00 0.00 33 1011.3
20260502062017 11 0.0 0.0 0.00 0.00 0.00 33 1011.2
20260502061017 12 0.0 0.0 0.00 0.00 0.00 36 1011.2
20260502060037 12 0.0 0.0 0.00 0.00 0.00 36 1011.2
20260502055017 11 0.0 0.0 0.00 0.00 0.00 40 1011.2
20260502054016 12 0.0 0.0 0.00 0.00 0.00 39 1011.2
20260502053016 12 0.0 0.0 0.00 0.00 0.00 40 1011.2
20260502052017 12 0.0 0.0 0.00 0.00 0.00 38 1011.2
20260502051036 12 0.0 0.0 0.00 0.00 0.00 38 1011.2
20260502050016 12 0.0 0.0 0.00 0.00 0.00 39 1011.2
20260502045016 12 0.0 0.0 0.00 0.00 0.00 40 1011.2
20260502044017 12 0.0 0.0 0.00 0.00 0.00 39 1011.2
20260502043036 12 0.0 0.0 0.00 0.00 0.00 40 1011.1
20260502042016 13 0.0 0.0 0.00 0.00 0.00 38 1011.1
20260502041136 12 0.0 0.0 0.00 0.00 0.00 39 1011.0
20260502040036 12 0.0 0.0 0.00 0.00 0.00 39 1010.8
20260502035016 13 0.0 0.0 0.00 0.00 0.00 39 1010.8
20260502034016 13 0.0 0.0 0.00 0.00 0.00 38 1010.6
20260502033016 13 0.0 0.0 0.00 0.00 0.00 39 1010.5
20260502032016 13 0.0 0.0 0.00 0.00 0.00 40 1010.5
20260502031016 12 0.0 0.0 0.00 0.00 0.00 41 1010.4
20260502030016 13 0.0 0.0 0.00 0.00 0.00 41 1010.2
20260502025016 13 0.0 0.0 0.00 0.00 0.00 43 1010.2
20260502024016 13 0.0 0.0 0.00 0.00 0.00 43 1010.1
20260502023016 13 0.0 0.0 0.00 0.00 0.00 43 1010.1
20260502022016 13 0.0 0.0 0.00 0.00 0.00 42 1010.0
20260502021016 14 0.0 0.0 0.00 0.00 0.00 39 1009.9
20260502020016 15 0.0 0.0 0.00 0.00 0.00 37 1009.8
20260502015016 15 0.0 0.0 0.00 0.00 0.00 35 1009.7
20260502014016 15 0.0 0.0 0.00 0.00 0.00 37 1009.6
20260502013016 15 0.0 0.0 0.00 0.00 0.00 35 1009.6
20260502012016 16 0.0 0.0 0.00 0.00 0.00 34 1009.5
20260502011016 16 0.0 0.0 0.00 0.00 0.00 34 1009.5
20260502010016 16 0.0 0.0 0.00 0.00 0.00 33 1009.5
20260502005016 16 0.0 0.0 0.00 0.00 0.00 34 1009.6
20260502004016 16 0.0 0.0 0.00 0.00 0.00 35 1009.6
20260502003036 16 0.0 0.0 0.00 0.00 0.00 32 1009.5
20260502002016 17 0.0 0.0 0.00 0.00 0.00 32 1009.6
20260502001015 16 0.0 0.0 0.00 0.00 0.00 32 1009.6
20260502000016 17 0.0 0.0 0.00 0.00 0.00 33 1009.7
20260501235015 17 0.0 0.0 0.00 0.00 0.00 35 1009.6
20260501234016 17 0.0 0.0 0.00 0.00 0.00 32 1009.7
20260501233016 17 0.0 0.0 0.00 0.00 0.00 32 1009.7
20260501232015 18 0.0 0.0 0.00 0.00 0.00 31 1009.7
20260501231016 17 0.0 0.0 0.00 0.00 0.00 31 1009.7
20260501230015 17 0.0 0.0 0.00 0.00 0.00 33 1009.8
20260501225015 18 0.0 0.0 0.00 0.00 0.00 31 1009.8
20260501224036 18 0.0 0.0 0.00 0.00 0.00 29 1009.8
20260501223015 17 0.0 0.0 0.00 0.00 0.00 31 1010.0
20260501222015 18 0.0 0.0 0.00 0.00 0.00 33 1010.0
20260501221035 18 0.0 0.0 0.00 0.00 0.00 31 1010.2
20260501220015 18 0.0 0.0 0.00 0.00 0.00 36 1010.2
20260501215015 18 0.0 0.0 0.00 0.00 0.00 29 1010.3
20260501214056 18 0.0 0.0 0.00 0.00 0.00 30 1010.3
20260501213015 18 0.0 0.0 0.00 0.00 0.00 28 1010.4
20260501212055 18 0.0 0.0 0.00 0.00 0.00 28 1010.5
20260501211015 18 0.0 0.0 0.00 0.00 0.00 27 1010.6
20260501210017 17 0.0 0.0 0.00 0.00 0.00 25 1010.6
20260501205057 18 0.0 3.2 0.00 0.00 0.00 30 1010.6
20260501204017 19 0.0 0.0 0.00 0.00 0.00 31 1010.6
20260501203017 18 0.0 0.0 0.00 0.00 0.00 24 1010.6
20260501202017 19 0.0 1.6 0.00 0.00 0.00 31 1010.6
20260501201017 18 0.0 0.0 0.00 0.00 0.00 24 1010.6
20260501200017 17 0.0 0.0 0.00 0.00 0.00 25 1010.6
20260501195017 18 0.0 6.4 0.00 0.00 0.00 23 1010.7
20260501194017 17 0.0 0.0 0.00 0.00 0.00 28 1010.7
20260501193017 17 0.0 0.0 0.00 0.00 0.00 23 1010.9
20260501192017 17 0.0 1.6 0.00 0.00 0.00 26 1011.0
20260501191017 17 0.0 6.4 0.00 0.00 0.00 24 1011.2
20260501190017 17 0.0 1.6 0.00 0.00 0.00 25 1011.4
20260501185037 17 0.0 0.0 0.00 0.00 0.00 26 1011.4
20260501184017 16 0.0 6.4 0.00 0.00 0.00 27 1011.6
20260501183017 16 0.0 1.6 0.00 0.00 0.00 25 1011.5
20260501182017 16 0.0 3.2 0.00 0.00 0.00 26 1011.6
20260501181017 16 0.0 1.6 0.00 0.00 0.00 27 1011.7
20260501180016 15 0.0 9.7 0.00 0.00 0.00 28 1011.8
20260501175036 14 68 6.4 24.1 0.00 0.00 0.00 26 1011.9
20260501174017 15 90 1.6 14.5 0.00 0.00 0.00 28 1011.7
20260501173017 16 68 1.6 16.1 0.00 0.00 0.00 30 1011.8
20260501172016 16 0.0 17.7 0.00 0.00 0.00 29 1011.9
20260501171037 16 0.0 1.6 0.00 0.00 0.00 28 1011.9
20260501170017 15 0.0 16.1 0.00 0.00 0.00 31 1012.0
20260501165056 15 0.0 4.8 0.00 0.00 0.00 31 1011.9
20260501164016 14 68 1.6 14.5 0.00 0.00 0.00 28 1012.0
20260501163016 13 0.0 8.0 0.00 0.00 0.00 30 1011.9